DAL1502 KLAX-KATL

Flight info

Callsign DAL1502
Flight time N/A
Altitude 41000
Route DOTSS2 CLEEE PKE HIDAT KA27O ACH TCC CRUSR IRW FSM MEM HUTCC KNSAW RUSSA GLAVN2
Aircraft A359/H-SDE2E3GHIJ3J4J5LM1ORWXY/LB1D1

Departure

Time 2026-04-24 19:16
Airport Los Angeles International Airport (KLAX)

Arrival

Time N/A
Airport Hartsfield Jackson Atlanta International Airport (KATL)
Time Latitude Longitude Altitude Speed Heading
2026-04-24 18:54 33.94605 -118.40817 99 ft 0 kts 112°
2026-04-24 19:02 33.94610 -118.40829 99 ft 0 kts 88°
2026-04-24 19:04 33.94609 -118.40852 112 ft 4 kts 89°
2026-04-24 19:05 33.94608 -118.40877 96 ft 4 kts 67°
2026-04-24 19:05 33.94597 -118.40890 98 ft 4 kts 338°
2026-04-24 19:05 33.94576 -118.40875 100 ft 4 kts 342°
2026-04-24 19:05 33.94550 -118.40871 100 ft 4 kts 355°
2026-04-24 19:06 33.94544 -118.40871 100 ft 0 kts 353°
2026-04-24 19:09 33.94551 -118.40872 102 ft 5 kts 351°
2026-04-24 19:09 33.94598 -118.40887 101 ft 4 kts 343°
2026-04-24 19:10 33.94607 -118.40890 101 ft 2 kts 346°
2026-04-24 19:10 33.94647 -118.40900 100 ft 0 kts 351°
2026-04-24 19:11 33.94661 -118.40903 101 ft 7 kts 351°
2026-04-24 19:11 33.94740 -118.40900 100 ft 10 kts 19°
2026-04-24 19:12 33.94821 -118.40859 104 ft 15 kts 47°
2026-04-24 19:12 33.94848 -118.40743 102 ft 14 kts 82°
2026-04-24 19:12 33.94862 -118.40615 104 ft 16 kts 84°
2026-04-24 19:12 33.94871 -118.40520 101 ft 18 kts 84°
2026-04-24 19:13 33.94882 -118.40419 101 ft 19 kts 84°
2026-04-24 19:13 33.94904 -118.40198 102 ft 21 kts 83°
2026-04-24 19:13 33.94921 -118.40025 100 ft 21 kts 83°
2026-04-24 19:13 33.94942 -118.39944 101 ft 0 kts 54°
2026-04-24 19:14 33.94946 -118.39939 101 ft 7 kts 47°
2026-04-24 19:14 33.95026 -118.39929 101 ft 8 kts 322°
2026-04-24 19:15 33.95036 -118.39995 102 ft 8 kts 265°
2026-04-24 19:15 33.95033 -118.40032 101 ft 0 kts 264°
2026-04-24 19:16 33.94954 -118.40816 104 ft 113 kts 263°
2026-04-24 19:16 33.94825 -118.41999 110 ft 170 kts 261°
2026-04-24 19:16 33.94695 -118.43362 934 ft 158 kts 260°
2026-04-24 19:17 33.94567 -118.44753 1502 ft 178 kts 258°
2026-04-24 19:17 33.94396 -118.46347 1903 ft 207 kts 259°
2026-04-24 19:17 33.94252 -118.48161 2426 ft 226 kts 265°
2026-04-24 19:17 33.94191 -118.50448 2921 ft 252 kts 266°
2026-04-24 19:18 33.94126 -118.52293 3570 ft 257 kts 264°
2026-04-24 19:18 33.93966 -118.54433 4504 ft 256 kts 263°
2026-04-24 19:18 33.93788 -118.56557 5428 ft 255 kts 264°
2026-04-24 19:18 33.93372 -118.58660 6177 ft 263 kts 248°
2026-04-24 19:19 33.92368 -118.60501 7034 ft 267 kts 226°
2026-04-24 19:19 33.90785 -118.61658 7963 ft 272 kts 199°
2026-04-24 19:19 33.88882 -118.61728 8813 ft 282 kts 168°
2026-04-24 19:19 33.86986 -118.61063 9685 ft 285 kts 172°
2026-04-24 19:20 33.85025 -118.60578 10419 ft 294 kts 171°
2026-04-24 19:20 33.82981 -118.59886 10801 ft 317 kts 164°
2026-04-24 19:20 33.80864 -118.58860 11160 ft 339 kts 158°
2026-04-24 19:20 33.78724 -118.57493 11648 ft 354 kts 154°
2026-04-24 19:21 33.76484 -118.56227 12359 ft 358 kts 162°
2026-04-24 19:21 33.74153 -118.55107 13108 ft 363 kts 161°
2026-04-24 19:21 33.71898 -118.53654 13849 ft 374 kts 150°
2026-04-24 19:21 33.69942 -118.51529 14481 ft 388 kts 133°
2026-04-24 19:22 33.68952 -118.49723 14896 ft 398 kts 120°
2026-04-24 19:22 33.67620 -118.45506 15737 ft 409 kts 111°
2026-04-24 19:22 33.66715 -118.42240 16369 ft 415 kts 111°
2026-04-24 19:22 33.65782 -118.38946 16825 ft 418 kts 112°
2026-04-24 19:23 33.64716 -118.34937 16991 ft 423 kts 105°
2026-04-24 19:23 33.64431 -118.32090 17001 ft 427 kts 94°
2026-04-24 19:23 33.64405 -118.28609 16992 ft 428 kts 91°
2026-04-24 19:23 33.64429 -118.25038 16988 ft 429 kts 91°
2026-04-24 19:24 33.64448 -118.21459 16987 ft 429 kts 91°
2026-04-24 19:24 33.64461 -118.17886 16980 ft 428 kts 91°
2026-04-24 19:24 33.64467 -118.14312 16976 ft 428 kts 91°
2026-04-24 19:24 33.64469 -118.10731 16985 ft 428 kts 91°
2026-04-24 19:25 33.64468 -118.07157 16987 ft 428 kts 91°
2026-04-24 19:25 33.64467 -118.03581 16986 ft 429 kts 91°
2026-04-24 19:25 33.64463 -118.00005 17030 ft 430 kts 91°
2026-04-24 19:25 33.64458 -117.96357 17474 ft 434 kts 91°
2026-04-24 19:26 33.64451 -117.92745 18137 ft 438 kts 91°
2026-04-24 19:26 33.64443 -117.89062 18689 ft 444 kts 91°
2026-04-24 19:26 33.64433 -117.85363 19242 ft 449 kts 91°
2026-04-24 19:26 33.64445 -117.81585 19791 ft 455 kts 89°
2026-04-24 19:27 33.64783 -117.77784 20363 ft 461 kts 79°
2026-04-24 19:27 33.65453 -117.74001 20908 ft 467 kts 77°
2026-04-24 19:27 33.66196 -117.70183 21495 ft 472 kts 76°
2026-04-24 19:27 33.66953 -117.66318 22070 ft 478 kts 76°
2026-04-24 19:28 33.67713 -117.62408 22648 ft 484 kts 76°
2026-04-24 19:28 33.68475 -117.58455 23222 ft 489 kts 76°
2026-04-24 19:28 33.69242 -117.54453 23758 ft 495 kts 76°
2026-04-24 19:28 33.70015 -117.50410 24272 ft 498 kts 76°
2026-04-24 19:29 33.71571 -117.42239 25280 ft 505 kts 77°
2026-04-24 19:29 33.72354 -117.38113 25794 ft 509 kts 77°
2026-04-24 19:29 33.73141 -117.33957 26298 ft 512 kts 77°
2026-04-24 19:30 33.73932 -117.29777 26802 ft 515 kts 77°
2026-04-24 19:30 33.74698 -117.25549 27304 ft 519 kts 80°
2026-04-24 19:30 33.75057 -117.21230 27788 ft 521 kts 91°
2026-04-24 19:30 33.75026 -117.16867 28285 ft 524 kts 94°
2026-04-24 19:31 33.74927 -117.12485 28775 ft 527 kts 94°
2026-04-24 19:31 33.74824 -117.08070 29272 ft 530 kts 94°
2026-04-24 19:31 33.74723 -117.03635 29720 ft 533 kts 94°
2026-04-24 19:31 33.74622 -116.99169 30143 ft 537 kts 94°
2026-04-24 19:32 33.74519 -116.94674 30496 ft 540 kts 94°
2026-04-24 19:32 33.74417 -116.90143 30840 ft 544 kts 94°
2026-04-24 19:32 33.74316 -116.85600 31183 ft 547 kts 94°
2026-04-24 19:32 33.74213 -116.81009 31471 ft 551 kts 94°
2026-04-24 19:33 33.74105 -116.76380 31810 ft 555 kts 94°
2026-04-24 19:33 33.73995 -116.71734 32108 ft 558 kts 94°
2026-04-24 19:33 33.73883 -116.67072 32409 ft 561 kts 94°
2026-04-24 19:33 33.73770 -116.62371 32667 ft 564 kts 94°
2026-04-24 19:34 33.73653 -116.57646 33005 ft 567 kts 95°
2026-04-24 19:34 33.73533 -116.52921 33388 ft 567 kts 95°
2026-04-24 19:34 33.73414 -116.48180 33671 ft 569 kts 95°
2026-04-24 19:34 33.73297 -116.43501 34071 ft 567 kts 95°
2026-04-24 19:35 33.73175 -116.38716 34415 ft 567 kts 95°
2026-04-24 19:35 33.73050 -116.33974 34594 ft 570 kts 95°
2026-04-24 19:35 33.72922 -116.29274 34884 ft 570 kts 95°
2026-04-24 19:35 33.72791 -116.24455 35216 ft 569 kts 95°
2026-04-24 19:36 33.72661 -116.19780 35459 ft 570 kts 95°
2026-04-24 19:36 33.72527 -116.15009 35730 ft 571 kts 95°
2026-04-24 19:36 33.72476 -116.10230 36003 ft 572 kts 89°
2026-04-24 19:36 33.72971 -116.05482 36257 ft 574 kts 77°
2026-04-24 19:37 33.74017 -116.00868 36589 ft 572 kts 72°
2026-04-24 19:37 33.75214 -115.96321 36896 ft 571 kts 70°
2026-04-24 19:37 33.75639 -115.94796 36968 ft 571 kts 69°